Location: Amarillo Post Office Jordan Station
(35.1907°N, 101.9342°W)
Time: 12:41:16
(UTC+00:00)

Cosmos 1400 Rocket - Pass Details

Date: 24 January 2021
Orbit: 520 x 568 km, 81.2° (Epoch: 03 March)

Event Time Altitude Azimuth Distance (km) Brightness Sun altitude
Rises 13:02:11 0° 221° (SW) 2,729 6.1 -10.4°
Reaches altitude 10° 13:04:49 10° 238° (WSW) 1,847 5.1 -9.9°
Maximum altitude 13:07:50 20° 286° (WNW) 1,347 4.2 -9.3°
Drops below altitude 10° 13:10:52 10° 334° (NNW) 1,869 5.1 -8.7°
Sets 13:13:34 0° 351° (N) 2,773 6.1 -8.2°
